Time,TemperatureF,DewpointF,PressureIn,WindDirection,WindDirectionDegrees,WindSpeedMPH,WindSpeedGustMPH,Humidity,HourlyPrecipIn,Conditions,Clouds,dailyrainin,SoftwareType,DateUTC
2013-01-11 00:03:00,36.9,24.7,28.56,SSE,159,3.6,5.8,61,0.00,,,0.00,VWS V14.01,2013-01-11 06:03:00,
2013-01-11 00:08:00,36.9,25.1,28.59,SSE,166,5.4,5.4,62,0.00,,,0.00,VWS V14.01,2013-01-11 06:08:00,
2013-01-11 00:13:00,36.9,24.7,28.59,SSE,168,3.6,3.6,61,0.00,,,0.00,VWS V14.01,2013-01-11 06:13:00,
2013-01-11 00:18:00,36.9,25.1,28.59,SSE,165,5.4,5.8,62,0.00,,,0.00,VWS V14.01,2013-01-11 06:18:00,
2013-01-11 00:23:00,36.9,25.1,28.56,SSE,161,4.9,4.9,62,0.00,,,0.00,VWS V14.01,2013-01-11 06:23:00,
2013-01-11 00:28:00,36.9,25.1,28.56,SE,145,6.3,7.6,62,0.00,,,0.00,VWS V14.01,2013-01-11 06:28:00,
2013-01-11 00:33:00,36.9,24.7,28.56,SE,130,6.3,6.3,61,0.00,,,0.00,VWS V14.01,2013-01-11 06:33:00,
2013-01-11 00:38:00,36.7,24.5,28.56,SE,130,3.1,4.0,61,0.00,,,0.00,VWS V14.01,2013-01-11 06:38:00,
2013-01-11 00:43:00,36.7,24.5,28.56,SE,137,4.9,8.3,61,0.00,,,0.00,VWS V14.01,2013-01-11 06:43:00,
2013-01-11 00:48:00,36.7,24.9,28.56,SSE,150,4.9,6.3,62,0.00,,,0.00,VWS V14.01,2013-01-11 06:48:00,
2013-01-11 00:53:00,36.9,25.1,28.56,SE,143,4.0,6.3,62,0.00,,,0.00,VWS V14.01,2013-01-11 06:53:00,
2013-01-11 00:58:00,36.9,25.1,28.56,SE,143,4.9,5.4,62,0.00,,,0.00,VWS V14.01,2013-01-11 06:58:00,
2013-01-11 01:03:00,36.9,25.1,28.56,SE,144,2.7,2.7,62,0.00,,,0.00,VWS V14.01,2013-01-11 07:03:00,
2013-01-11 01:08:00,36.9,25.1,28.53,SSE,147,2.7,5.4,62,0.00,,,0.00,VWS V14.01,2013-01-11 07:08:00,
2013-01-11 01:13:00,36.9,25.1,28.53,SSE,148,3.1,4.9,62,0.00,,,0.00,VWS V14.01,2013-01-11 07:13:00,
2013-01-11 01:18:00,36.9,25.1,28.53,SSE,152,5.4,5.8,62,0.00,,,0.00,VWS V14.01,2013-01-11 07:18:00,
2013-01-11 01:23:00,36.7,24.9,28.53,SSE,153,4.0,4.0,62,0.00,,,0.00,VWS V14.01,2013-01-11 07:23:00,
2013-01-11 01:28:00,36.7,24.9,28.53,SSE,155,3.1,3.6,62,0.00,,,0.00,VWS V14.01,2013-01-11 07:28:00,
2013-01-11 01:33:00,36.7,24.9,28.53,SSE,155,3.1,4.9,62,0.00,,,0.00,VWS V14.01,2013-01-11 07:33:00,
2013-01-11 01:38:00,36.7,24.9,28.53,SSE,158,3.6,6.3,62,0.00,,,0.00,VWS V14.01,2013-01-11 07:38:00,
2013-01-11 01:43:00,36.7,24.9,28.53,SSE,156,8.1,8.1,62,0.00,,,0.00,VWS V14.01,2013-01-11 07:43:00,
2013-01-11 01:48:00,36.7,25.3,28.53,SSE,157,6.3,6.3,63,0.00,,,0.00,VWS V14.01,2013-01-11 07:48:00,
2013-01-11 01:53:00,36.9,25.5,28.53,SSE,148,6.3,6.3,63,0.00,,,0.00,VWS V14.01,2013-01-11 07:53:00,
2013-01-11 01:58:00,36.9,25.5,28.53,SSE,158,3.6,5.8,63,0.00,,,0.00,VWS V14.01,2013-01-11 07:58:00,
2013-01-11 02:03:00,36.9,25.5,28.53,SSE,157,5.4,6.3,63,0.00,,,0.00,VWS V14.01,2013-01-11 08:03:00,
2013-01-11 02:08:00,37.0,25.6,28.53,SE,143,5.8,7.6,63,0.00,,,0.00,VWS V14.01,2013-01-11 08:08:00,
2013-01-11 02:13:00,37.0,25.6,28.53,SE,144,5.4,7.6,63,0.00,,,0.00,VWS V14.01,2013-01-11 08:13:00,
2013-01-11 02:18:00,37.0,25.6,28.53,SSE,149,5.4,6.3,63,0.00,,,0.00,VWS V14.01,2013-01-11 08:18:00,
2013-01-11 02:23:00,37.0,25.6,28.53,SSE,167,6.3,6.3,63,0.00,,,0.00,VWS V14.01,2013-01-11 08:23:00,
2013-01-11 02:28:00,37.0,25.6,28.53,SSE,151,7.6,7.6,63,0.00,,,0.00,VWS V14.01,2013-01-11 08:28:00,
2013-01-11 02:33:00,37.0,25.6,28.53,South,175,3.6,4.9,63,0.00,,,0.00,VWS V14.01,2013-01-11 08:33:00,
2013-01-11 02:38:00,37.0,25.6,28.53,SSE,161,5.4,6.3,63,0.00,,,0.00,VWS V14.01,2013-01-11 08:38:00,
2013-01-11 02:43:00,37.0,25.6,28.53,SSE,154,4.0,4.0,63,0.00,,,0.00,VWS V14.01,2013-01-11 08:43:00,
2013-01-11 02:48:00,36.9,25.5,28.53,SE,136,4.0,4.9,63,0.00,,,0.00,VWS V14.01,2013-01-11 08:48:00,
2013-01-11 02:53:00,36.7,25.3,28.53,SE,132,5.8,6.3,63,0.00,,,0.00,VWS V14.01,2013-01-11 08:53:00,
2013-01-11 02:58:00,36.7,25.3,28.53,SE,140,4.9,4.9,63,0.00,,,0.00,VWS V14.01,2013-01-11 08:58:00,
2013-01-11 03:03:00,36.5,25.1,28.53,SSE,157,4.0,5.8,63,0.00,,,0.00,VWS V14.01,2013-01-11 09:03:00,
2013-01-11 03:08:00,36.3,25.0,28.53,South,173,3.6,4.0,63,0.00,,,0.00,VWS V14.01,2013-01-11 09:08:00,
2013-01-11 03:13:00,36.5,25.1,28.53,SSE,167,5.4,5.8,63,0.00,,,0.00,VWS V14.01,2013-01-11 09:13:00,
2013-01-11 03:18:00,36.3,25.0,28.53,SE,140,4.9,6.3,63,0.00,,,0.00,VWS V14.01,2013-01-11 09:18:00,
2013-01-11 03:23:00,36.3,25.0,28.50,SSE,157,4.9,4.9,63,0.00,,,0.00,VWS V14.01,2013-01-11 09:23:00,
2013-01-11 03:28:00,36.3,25.0,28.50,SSE,166,4.0,4.0,63,0.00,,,0.00,VWS V14.01,2013-01-11 09:28:00,
2013-01-11 03:33:00,36.3,25.0,28.50,SSE,166,4.0,6.3,63,0.00,,,0.00,VWS V14.01,2013-01-11 09:33:00,
2013-01-11 03:38:00,36.3,25.3,28.50,SSE,167,5.8,5.8,64,0.00,,,0.00,VWS V14.01,2013-01-11 09:38:00,
2013-01-11 03:43:00,36.3,25.3,28.50,SSE,157,4.0,5.8,64,0.00,,,0.00,VWS V14.01,2013-01-11 09:43:00,
2013-01-11 03:48:00,36.3,25.3,28.50,SSE,162,4.0,5.8,64,0.00,,,0.00,VWS V14.01,2013-01-11 09:48:00,
2013-01-11 03:53:00,36.1,25.1,28.50,SSE,150,5.8,5.8,64,0.00,,,0.00,VWS V14.01,2013-01-11 09:53:00,
2013-01-11 03:58:00,36.1,25.1,28.50,SSE,162,6.3,6.3,64,0.00,,,0.00,VWS V14.01,2013-01-11 09:58:00,
2013-01-11 04:03:00,36.1,25.1,28.50,South,177,5.4,5.4,64,0.00,,,0.00,VWS V14.01,2013-01-11 10:03:00,
2013-01-11 04:08:00,36.1,25.1,28.50,SSE,150,8.3,8.3,64,0.00,,,0.00,VWS V14.01,2013-01-11 10:08:00,
2013-01-11 04:13:00,36.1,25.1,28.50,SSE,162,5.8,5.8,64,0.00,,,0.00,VWS V14.01,2013-01-11 10:13:00,
2013-01-11 04:18:00,36.1,25.1,28.50,SSE,147,4.9,5.8,64,0.00,,,0.00,VWS V14.01,2013-01-11 10:18:00,
2013-01-11 04:23:00,36.1,25.1,28.50,South,189,5.4,5.4,64,0.00,,,0.00,VWS V14.01,2013-01-11 10:23:00,
2013-01-11 04:28:00,36.1,25.1,28.50,SSW,196,5.4,8.1,64,0.00,,,0.00,VWS V14.01,2013-01-11 10:28:00,
2013-01-11 04:33:00,36.1,25.1,28.50,South,187,3.1,7.6,64,0.00,,,0.00,VWS V14.01,2013-01-11 10:33:00,
2013-01-11 04:38:00,36.3,25.3,28.50,South,172,6.3,10.1,64,0.00,,,0.00,VWS V14.01,2013-01-11 10:38:00,
2013-01-11 04:43:00,36.3,25.3,28.50,South,177,5.4,7.2,64,0.00,,,0.00,VWS V14.01,2013-01-11 10:43:00,
2013-01-11 04:48:00,36.3,25.3,28.50,South,170,5.4,5.8,64,0.00,,,0.00,VWS V14.01,2013-01-11 10:48:00,
2013-01-11 04:53:00,36.3,25.3,28.47,SSE,165,6.3,10.1,64,0.00,,,0.00,VWS V14.01,2013-01-11 10:53:00,
2013-01-11 04:58:00,36.3,25.3,28.47,SSE,168,5.8,6.7,64,0.00,,,0.00,VWS V14.01,2013-01-11 10:58:00,
2013-01-11 05:03:00,36.3,25.7,28.47,SSE,154,8.3,8.3,65,0.00,,,0.00,VWS V14.01,2013-01-11 11:03:00,
2013-01-11 05:08:00,36.3,25.7,28.47,SSE,160,5.4,8.3,65,0.00,,,0.00,VWS V14.01,2013-01-11 11:08:00,
2013-01-11 05:13:00,36.3,25.7,28.47,SE,145,5.4,5.8,65,0.00,,,0.00,VWS V14.01,2013-01-11 11:13:00,
2013-01-11 05:18:00,36.5,25.9,28.47,South,171,4.9,8.3,65,0.00,,,0.00,VWS V14.01,2013-01-11 11:18:00,
2013-01-11 05:23:00,36.7,26.0,28.47,SSE,160,3.6,6.3,65,0.00,,,0.00,VWS V14.01,2013-01-11 11:23:00,
2013-01-11 05:28:00,36.5,25.9,28.47,SSE,154,3.1,4.9,65,0.00,,,0.00,VWS V14.01,2013-01-11 11:28:00,
2013-01-11 05:33:00,36.5,25.9,28.47,SSE,159,5.8,5.8,65,0.00,,,0.00,VWS V14.01,2013-01-11 11:33:00,
2013-01-11 05:38:00,36.7,26.0,28.47,SSE,150,5.8,6.3,65,0.00,,,0.00,VWS V14.01,2013-01-11 11:38:00,
2013-01-11 05:43:00,36.7,26.0,28.47,SSE,150,5.4,6.3,65,0.00,,,0.00,VWS V14.01,2013-01-11 11:43:00,
2013-01-11 05:48:00,36.7,26.0,28.47,SE,136,6.3,6.3,65,0.00,,,0.00,VWS V14.01,2013-01-11 11:48:00,
2013-01-11 05:53:00,36.7,26.4,28.47,SE,136,4.9,5.8,66,0.00,,,0.00,VWS V14.01,2013-01-11 11:53:00,
2013-01-11 05:58:00,36.7,26.0,28.47,SE,135,5.4,5.8,65,0.00,,,0.00,VWS V14.01,2013-01-11 11:58:00,
2013-01-11 06:03:00,36.7,26.0,28.47,SE,124,5.4,6.3,65,0.00,,,0.00,VWS V14.01,2013-01-11 12:03:00,
2013-01-11 06:08:00,36.7,26.0,28.44,ESE,120,6.3,6.3,65,0.00,,,0.00,VWS V14.01,2013-01-11 12:08:00,
2013-01-11 06:13:00,36.7,26.4,28.44,SE,136,6.3,6.3,66,0.00,,,0.00,VWS V14.01,2013-01-11 12:13:00,
2013-01-11 06:18:00,36.7,26.4,28.44,SE,138,4.0,5.8,66,0.00,,,0.00,VWS V14.01,2013-01-11 12:18:00,
2013-01-11 06:23:00,36.7,26.4,28.44,SSE,153,3.6,4.9,66,0.00,,,0.00,VWS V14.01,2013-01-11 12:23:00,
2013-01-11 06:28:00,36.9,26.6,28.44,SE,137,5.8,7.6,66,0.00,,,0.00,VWS V14.01,2013-01-11 12:28:00,
2013-01-11 06:33:00,36.9,26.6,28.44,SSE,164,4.0,7.6,66,0.00,,,0.00,VWS V14.01,2013-01-11 12:33:00,
2013-01-11 06:38:00,37.2,26.9,28.44,SE,124,8.3,8.7,66,0.00,,,0.00,VWS V14.01,2013-01-11 12:38:00,
2013-01-11 06:43:00,37.4,27.1,28.44,ESE,113,8.1,8.1,66,0.00,,,0.00,VWS V14.01,2013-01-11 12:43:00,
2013-01-11 06:48:00,37.4,27.1,28.44,ESE,122,8.7,8.7,66,0.00,,,0.00,VWS V14.01,2013-01-11 12:48:00,
2013-01-11 06:53:00,37.6,27.3,28.44,SE,127,6.3,6.3,66,0.00,,,0.00,VWS V14.01,2013-01-11 12:53:00,
2013-01-11 06:58:00,37.6,27.3,28.44,SE,131,8.3,8.7,66,0.00,,,0.00,VWS V14.01,2013-01-11 12:58:00,
2013-01-11 07:03:00,37.6,27.3,28.44,ESE,120,7.2,7.2,66,0.00,,,0.00,VWS V14.01,2013-01-11 13:03:00,
2013-01-11 07:08:00,37.6,27.3,28.44,SE,126,5.8,7.6,66,0.00,,,0.00,VWS V14.01,2013-01-11 13:08:00,
2013-01-11 07:13:00,37.6,27.3,28.44,SE,133,5.4,7.6,66,0.00,,,0.00,VWS V14.01,2013-01-11 13:13:00,
2013-01-11 07:18:00,37.6,27.3,28.44,ESE,119,6.3,6.3,66,0.00,,,0.00,VWS V14.01,2013-01-11 13:18:00,
2013-01-11 07:23:00,37.6,27.3,28.44,SE,125,7.2,8.1,66,0.00,,,0.00,VWS V14.01,2013-01-11 13:23:00,
2013-01-11 07:28:00,37.6,27.3,28.44,SE,132,7.2,8.7,66,0.00,,,0.00,VWS V14.01,2013-01-11 13:28:00,
2013-01-11 07:33:00,37.8,27.4,28.44,ESE,123,8.3,10.5,66,0.00,,,0.00,VWS V14.01,2013-01-11 13:33:00,
2013-01-11 07:38:00,37.9,27.6,28.41,SE,139,8.1,8.1,66,0.00,,,0.00,VWS V14.01,2013-01-11 13:38:00,
2013-01-11 07:43:00,37.9,27.6,28.41,SE,138,6.3,8.7,66,0.00,,,0.00,VWS V14.01,2013-01-11 13:43:00,
2013-01-11 07:48:00,38.1,28.1,28.41,SE,129,4.0,5.4,67,0.00,,,0.00,VWS V14.01,2013-01-11 13:48:00,
2013-01-11 07:53:00,38.3,28.3,28.41,ESE,110,5.8,8.7,67,0.00,,,0.00,VWS V14.01,2013-01-11 13:53:00,
2013-01-11 07:58:00,38.3,28.3,28.41,SE,129,8.7,8.7,67,0.00,,,0.00,VWS V14.01,2013-01-11 13:58:00,
2013-01-11 08:03:00,38.3,28.3,28.41,SE,130,8.3,8.3,67,0.00,,,0.00,VWS V14.01,2013-01-11 14:03:00,
2013-01-11 08:08:00,38.3,28.3,28.41,ESE,119,8.7,8.7,67,0.00,,,0.00,VWS V14.01,2013-01-11 14:08:00,
2013-01-11 08:13:00,38.5,28.5,28.41,SE,135,8.1,8.1,67,0.00,,,0.00,VWS V14.01,2013-01-11 14:13:00,
2013-01-11 08:18:00,38.5,28.5,28.41,SE,133,6.7,7.6,67,0.00,,,0.00,VWS V14.01,2013-01-11 14:18:00,
2013-01-11 08:23:00,38.5,28.5,28.41,SE,138,5.8,8.7,67,0.00,,,0.00,VWS V14.01,2013-01-11 14:23:00,
2013-01-11 08:28:00,38.7,28.7,28.41,SE,142,5.8,6.3,67,0.00,,,0.00,VWS V14.01,2013-01-11 14:28:00,
2013-01-11 08:33:00,38.7,28.7,28.41,SE,140,6.3,6.3,67,0.00,,,0.00,VWS V14.01,2013-01-11 14:33:00,
2013-01-11 08:38:00,38.8,28.8,28.41,SE,125,7.6,8.1,67,0.00,,,0.00,VWS V14.01,2013-01-11 14:38:00,
2013-01-11 08:42:00,39.0,29.0,28.41,SE,137,5.8,7.6,67,0.00,,,0.00,VWS V14.01,2013-01-11 14:42:00,
2013-01-11 08:47:00,39.2,29.2,28.41,ESE,123,6.3,7.6,67,0.00,,,0.00,VWS V14.01,2013-01-11 14:47:00,
2013-01-11 08:52:00,39.6,29.5,28.41,SE,125,8.7,8.7,67,0.00,,,0.00,VWS V14.01,2013-01-11 14:52:00,
2013-01-11 08:57:00,39.7,30.1,28.41,SE,142,5.8,5.8,68,0.00,,,0.00,VWS V14.01,2013-01-11 14:57:00,
2013-01-11 09:02:00,39.9,30.2,28.41,SE,140,4.0,5.4,68,0.00,,,0.00,VWS V14.01,2013-01-11 15:02:00,
2013-01-11 09:07:00,40.3,30.6,28.41,SSE,152,5.4,7.6,68,0.00,,,0.00,VWS V14.01,2013-01-11 15:07:00,
2013-01-11 09:12:00,40.5,30.8,28.41,SE,142,3.1,4.9,68,0.00,,,0.00,VWS V14.01,2013-01-11 15:12:00,
2013-01-11 09:17:00,40.6,30.9,28.41,SSE,157,5.8,8.1,68,0.00,,,0.00,VWS V14.01,2013-01-11 15:17:00,
2013-01-11 09:22:00,40.8,31.1,28.41,SE,127,9.2,9.2,68,0.00,,,0.00,VWS V14.01,2013-01-11 15:22:00,
2013-01-11 09:27:00,41.0,31.3,28.41,SSE,157,8.3,8.3,68,0.00,,,0.00,VWS V14.01,2013-01-11 15:27:00,
2013-01-11 09:32:00,41.2,31.4,28.41,South,171,4.0,5.8,68,0.00,,,0.00,VWS V14.01,2013-01-11 15:32:00,
2013-01-11 09:37:00,41.2,31.1,28.41,SSE,153,7.6,7.6,67,0.00,,,0.00,VWS V14.01,2013-01-11 15:37:00,
2013-01-11 09:42:00,41.2,31.1,28.41,SE,146,6.3,8.1,67,0.00,,,0.00,VWS V14.01,2013-01-11 15:42:00,
2013-01-11 09:47:00,41.2,31.1,28.41,SSE,147,5.8,5.8,67,0.00,,,0.00,VWS V14.01,2013-01-11 15:47:00,
2013-01-11 09:52:00,41.2,31.1,28.41,SE,142,8.7,8.7,67,0.00,,,0.00,VWS V14.01,2013-01-11 15:52:00,
2013-01-11 09:57:00,41.4,31.2,28.41,SE,146,5.4,5.8,67,0.00,,,0.00,VWS V14.01,2013-01-11 15:57:00,
2013-01-11 10:02:00,41.5,31.4,28.41,SE,137,8.3,8.3,67,0.00,,,0.00,VWS V14.01,2013-01-11 16:02:00,
2013-01-11 10:07:00,41.7,31.6,28.38,SE,139,4.9,5.8,67,0.00,,,0.00,VWS V14.01,2013-01-11 16:07:00,
2013-01-11 10:12:00,41.9,32.1,28.38,ESE,120,10.1,10.1,68,0.00,,,0.00,VWS V14.01,2013-01-11 16:12:00,
2013-01-11 10:17:00,42.1,32.3,28.38,SSE,154,5.8,6.3,68,0.00,,,0.00,VWS V14.01,2013-01-11 16:17:00,
2013-01-11 10:22:00,42.3,32.5,28.38,SE,128,6.3,7.6,68,0.00,,,0.00,VWS V14.01,2013-01-11 16:22:00,
2013-01-11 10:27:00,42.4,32.6,28.38,SE,141,6.7,6.7,68,0.00,,,0.00,VWS V14.01,2013-01-11 16:27:00,
2013-01-11 10:32:00,42.8,32.6,28.38,ESE,119,8.1,10.1,67,0.00,,,0.00,VWS V14.01,2013-01-11 16:32:00,
2013-01-11 10:37:00,43.0,32.8,28.38,SE,135,5.4,8.3,67,0.00,,,0.00,VWS V14.01,2013-01-11 16:37:00,
2013-01-11 10:42:00,43.2,33.0,28.38,SE,131,5.8,7.6,67,0.00,,,0.00,VWS V14.01,2013-01-11 16:42:00,
2013-01-11 10:47:00,43.3,33.1,28.38,SSE,149,6.3,6.7,67,0.00,,,0.00,VWS V14.01,2013-01-11 16:47:00,
2013-01-11 10:52:00,43.5,33.3,28.35,South,174,10.1,10.1,67,0.00,,,0.00,VWS V14.01,2013-01-11 16:52:00,
2013-01-11 10:57:00,43.7,33.5,28.35,SE,145,4.9,6.7,67,0.00,,,0.00,VWS V14.01,2013-01-11 16:57:00,
2013-01-11 11:02:00,44.1,33.8,28.35,SE,126,8.1,8.1,67,0.00,,,0.00,VWS V14.01,2013-01-11 17:02:00,
2013-01-11 11:07:00,44.6,34.3,28.35,SE,128,6.3,10.5,67,0.00,,,0.00,VWS V14.01,2013-01-11 17:07:00,
2013-01-11 11:12:00,44.8,34.5,28.35,SSE,149,6.7,6.7,67,0.00,,,0.00,VWS V14.01,2013-01-11 17:12:00,
2013-01-11 11:17:00,45.3,35.0,28.35,SSE,157,5.4,5.4,67,0.00,,,0.00,VWS V14.01,2013-01-11 17:17:00,
2013-01-11 11:22:00,45.9,35.5,28.35,SE,145,4.9,5.4,67,0.00,,,0.00,VWS V14.01,2013-01-11 17:22:00,
2013-01-11 11:27:00,46.2,35.9,28.35,South,169,10.1,10.1,67,0.00,,,0.00,VWS V14.01,2013-01-11 17:27:00,
2013-01-11 11:32:00,46.8,36.4,28.35,South,176,5.8,5.8,67,0.00,,,0.00,VWS V14.01,2013-01-11 17:32:00,
2013-01-11 11:37:00,47.3,36.9,28.35,South,170,8.7,8.7,67,0.00,,,0.00,VWS V14.01,2013-01-11 17:37:00,
2013-01-11 11:42:00,47.7,36.9,28.35,South,177,7.6,7.6,66,0.00,,,0.00,VWS V14.01,2013-01-11 17:42:00,
2013-01-11 11:47:00,47.8,37.0,28.35,SSE,156,10.5,10.5,66,0.00,,,0.00,VWS V14.01,2013-01-11 17:47:00,
2013-01-11 11:52:00,47.3,35.8,28.32,SSE,168,8.1,8.1,64,0.00,,,0.00,VWS V14.01,2013-01-11 17:52:00,
2013-01-11 11:57:00,47.3,35.8,28.32,SE,133,7.6,11.4,64,0.00,,,0.00,VWS V14.01,2013-01-11 17:57:00,
2013-01-11 12:02:00,47.3,35.8,28.32,South,179,5.4,7.6,64,0.00,,,0.00,VWS V14.01,2013-01-11 18:02:00,
2013-01-11 12:07:00,47.3,35.8,28.32,SE,138,12.3,12.3,64,0.00,,,0.00,VWS V14.01,2013-01-11 18:07:00,
2013-01-11 12:12:00,47.3,35.8,28.32,SSE,151,12.8,12.8,64,0.00,,,0.00,VWS V14.01,2013-01-11 18:12:00,
2013-01-11 12:17:00,47.7,36.9,28.32,South,176,5.4,5.4,66,0.00,,,0.00,VWS V14.01,2013-01-11 18:17:00,
2013-01-11 12:22:00,47.7,36.9,28.32,South,186,7.6,10.5,66,0.00,,,0.00,VWS V14.01,2013-01-11 18:22:00,
2013-01-11 12:27:00,49.1,38.2,28.32,SSW,194,8.3,8.3,66,0.00,,,0.00,VWS V14.01,2013-01-11 18:27:00,
2013-01-11 12:32:00,49.1,38.2,28.32,SSE,168,5.8,5.8,66,0.00,,,0.00,VWS V14.01,2013-01-11 18:32:00,
2013-01-11 12:37:00,49.1,38.2,28.32,South,169,6.3,7.2,66,0.00,,,0.00,VWS V14.01,2013-01-11 18:37:00,
2013-01-11 12:42:00,50.0,37.9,28.32,SSE,158,8.7,8.7,63,0.00,,,0.00,VWS V14.01,2013-01-11 18:42:00,
2013-01-11 12:47:00,50.0,37.9,28.32,SSE,168,11.0,11.0,63,0.00,,,0.00,VWS V14.01,2013-01-11 18:47:00,
2013-01-11 12:52:00,50.4,37.4,28.32,SE,133,6.3,6.3,61,0.00,,,0.00,VWS V14.01,2013-01-11 18:52:00,
2013-01-11 12:57:00,50.5,37.2,28.29,SE,145,5.8,5.8,60,0.00,,,0.00,VWS V14.01,2013-01-11 18:57:00,
2013-01-11 13:02:00,51.3,37.9,28.29,South,172,10.1,10.1,60,0.00,,,0.00,VWS V14.01,2013-01-11 19:02:00,
2013-01-11 13:07:00,51.6,36.9,28.29,SE,146,5.8,5.8,57,0.00,,,0.00,VWS V14.01,2013-01-11 19:07:00,
2013-01-11 13:12:00,51.6,36.9,28.29,SSE,163,5.4,5.4,57,0.00,,,0.00,VWS V14.01,2013-01-11 19:12:00,
2013-01-11 13:17:00,51.8,33.8,28.29,SE,143,10.1,10.1,50,0.00,,,0.00,VWS V14.01,2013-01-11 19:17:00,
2013-01-11 13:22:00,52.2,34.1,28.29,South,179,10.1,10.1,50,0.00,,,0.00,VWS V14.01,2013-01-11 19:22:00,
2013-01-11 13:27:00,53.1,32.8,28.29,SSW,202,12.8,12.8,46,0.00,,,0.00,VWS V14.01,2013-01-11 19:27:00,
2013-01-11 13:37:00,52.7,-9.7,28.26,SSE,155,8.3,8.3,7,0.00,,,0.00,VWS V14.01,2013-01-11 19:37:00,
2013-01-11 13:42:00,53.1,-9.4,28.26,South,176,8.1,8.1,7,0.00,,,0.00,VWS V14.01,2013-01-11 19:42:00,
2013-01-11 13:47:00,53.1,-9.4,28.26,SSE,164,4.0,8.1,7,0.00,,,0.00,VWS V14.01,2013-01-11 19:47:00,
2013-01-11 13:52:00,53.8,-8.9,28.26,SW,214,8.3,8.3,7,0.00,,,0.00,VWS V14.01,2013-01-11 19:52:00,
2013-01-11 13:57:00,53.8,-8.9,28.26,SSE,158,9.6,9.6,7,0.00,,,0.00,VWS V14.01,2013-01-11 19:57:00,
2013-01-11 14:02:00,54.0,23.2,28.26,South,176,10.1,10.1,30,0.00,,,0.00,VWS V14.01,2013-01-11 20:02:00,
2013-01-11 14:07:00,54.0,23.2,28.26,SSE,168,5.8,5.8,30,0.00,,,0.00,VWS V14.01,2013-01-11 20:07:00,
2013-01-11 14:12:00,53.1,24.0,28.29,SSE,158,8.3,12.3,32,0.00,,,0.00,VWS V14.01,2013-01-11 20:12:00,
2013-01-11 14:17:00,53.4,26.5,28.29,South,173,12.8,12.8,35,0.00,,,0.00,VWS V14.01,2013-01-11 20:17:00,
2013-01-11 14:22:00,53.4,26.5,28.29,SE,139,5.4,8.7,35,0.00,,,0.00,VWS V14.01,2013-01-11 20:22:00,
2013-01-11 14:27:00,53.6,24.5,28.29,South,175,8.1,8.1,32,0.00,,,0.00,VWS V14.01,2013-01-11 20:27:00,
2013-01-11 14:32:00,53.6,24.5,28.29,South,182,8.3,10.1,32,0.00,,,0.00,VWS V14.01,2013-01-11 20:32:00,
2013-01-11 14:37:00,53.2,24.2,28.29,South,180,8.7,8.7,32,0.00,,,0.00,VWS V14.01,2013-01-11 20:37:00,
2013-01-11 14:42:00,53.2,24.2,28.29,South,179,6.3,6.3,32,0.00,,,0.00,VWS V14.01,2013-01-11 20:42:00,
2013-01-11 14:47:00,52.9,23.1,28.29,SSE,162,6.3,9.2,31,0.00,,,0.00,VWS V14.01,2013-01-11 20:47:00,
2013-01-11 14:52:00,52.3,23.4,28.29,SSE,162,8.1,8.1,32,0.00,,,0.00,VWS V14.01,2013-01-11 20:52:00,
2013-01-11 14:57:00,52.3,23.4,28.29,South,175,5.4,6.3,32,0.00,,,0.00,VWS V14.01,2013-01-11 20:57:00,
2013-01-11 15:02:00,52.0,23.8,28.29,SSE,157,5.8,5.8,33,0.00,,,0.00,VWS V14.01,2013-01-11 21:02:00,
2013-01-11 15:07:00,52.0,23.8,28.29,South,169,6.3,6.3,33,0.00,,,0.00,VWS V14.01,2013-01-11 21:07:00,
2013-01-11 15:12:00,52.0,23.8,28.26,SSE,161,8.3,8.3,33,0.00,,,0.00,VWS V14.01,2013-01-11 21:12:00,
2013-01-11 15:17:00,51.4,23.3,28.26,SSE,166,8.1,8.1,33,0.00,,,0.00,VWS V14.01,2013-01-11 21:17:00,
2013-01-11 15:22:00,51.3,22.4,28.26,SSE,147,9.6,9.6,32,0.00,,,0.00,VWS V14.01,2013-01-11 21:22:00,
2013-01-11 15:27:00,51.3,22.4,28.29,SSE,155,5.8,8.7,32,0.00,,,0.00,VWS V14.01,2013-01-11 21:27:00,
2013-01-11 15:32:00,51.3,22.4,28.29,South,187,9.2,12.8,32,0.00,,,0.00,VWS V14.01,2013-01-11 21:32:00,
2013-01-11 15:37:00,51.3,22.4,28.29,South,184,6.3,6.3,32,0.00,,,0.00,VWS V14.01,2013-01-11 21:37:00,
2013-01-11 15:42:00,51.3,22.4,28.29,SSW,192,10.1,10.1,32,0.00,,,0.00,VWS V14.01,2013-01-11 21:42:00,
2013-01-11 15:47:00,50.7,21.2,28.29,South,172,10.5,10.5,31,0.00,,,0.00,VWS V14.01,2013-01-11 21:47:00,
2013-01-11 15:52:00,50.5,21.0,28.29,South,169,11.9,11.9,31,0.00,,,0.00,VWS V14.01,2013-01-11 21:52:00,
2013-01-11 15:57:00,50.4,20.9,28.26,South,173,8.3,8.3,31,0.00,,,0.00,VWS V14.01,2013-01-11 21:57:00,
2013-01-11 16:02:00,50.4,20.9,28.26,South,184,8.3,8.3,31,0.00,,,0.00,VWS V14.01,2013-01-11 22:02:00,
2013-01-11 16:07:00,49.8,21.2,28.26,SSW,192,8.3,8.3,32,0.00,,,0.00,VWS V14.01,2013-01-11 22:07:00,
2013-01-11 16:12:00,49.8,21.9,28.29,South,172,8.1,8.1,33,0.00,,,0.00,VWS V14.01,2013-01-11 22:12:00,
2013-01-11 16:17:00,49.6,21.7,28.29,SSE,168,8.1,8.1,33,0.00,,,0.00,VWS V14.01,2013-01-11 22:17:00,
2013-01-11 16:22:00,49.6,21.7,28.29,South,189,4.0,7.6,33,0.00,,,0.00,VWS V14.01,2013-01-11 22:22:00,
2013-01-11 16:27:00,49.6,21.7,28.29,South,176,7.6,7.6,33,0.00,,,0.00,VWS V14.01,2013-01-11 22:27:00,
2013-01-11 16:32:00,49.6,21.7,28.26,South,184,8.3,10.1,33,0.00,,,0.00,VWS V14.01,2013-01-11 22:32:00,
2013-01-11 16:37:00,48.9,21.1,28.26,South,182,11.4,11.4,33,0.00,,,0.00,VWS V14.01,2013-01-11 22:37:00,
2013-01-11 16:42:00,48.9,21.8,28.26,SSW,196,4.0,4.5,34,0.00,,,0.00,VWS V14.01,2013-01-11 22:42:00,
2013-01-11 16:47:00,48.7,21.6,28.26,SW,230,5.4,5.4,34,0.00,,,0.00,VWS V14.01,2013-01-11 22:47:00,
2013-01-11 16:52:00,48.7,21.6,28.29,SW,227,5.4,5.4,34,0.00,,,0.00,VWS V14.01,2013-01-11 22:52:00,
2013-01-11 16:57:00,48.7,21.6,28.29,SSW,201,3.6,5.8,34,0.00,,,0.00,VWS V14.01,2013-01-11 22:57:00,
2013-01-11 17:02:00,48.0,21.7,28.29,SW,218,5.4,5.4,35,0.00,,,0.00,VWS V14.01,2013-01-11 23:02:00,
2013-01-11 17:07:00,48.0,21.7,28.29,SSW,205,6.3,6.7,35,0.00,,,0.00,VWS V14.01,2013-01-11 23:07:00,
2013-01-11 17:12:00,47.8,22.2,28.29,SW,227,4.0,4.9,36,0.00,,,0.00,VWS V14.01,2013-01-11 23:12:00,
2013-01-11 17:17:00,47.5,21.9,28.29,SSW,207,5.4,7.6,36,0.00,,,0.00,VWS V14.01,2013-01-11 23:17:00,
2013-01-11 17:22:00,47.5,21.9,28.29,SSW,197,3.6,3.6,36,0.00,,,0.00,VWS V14.01,2013-01-11 23:22:00,
2013-01-11 17:27:00,47.3,21.7,28.29,SSW,201,5.4,5.4,36,0.00,,,0.00,VWS V14.01,2013-01-11 23:27:00,
2013-01-11 17:32:00,47.3,21.7,28.29,SSW,212,5.4,5.4,36,0.00,,,0.00,VWS V14.01,2013-01-11 23:32:00,
2013-01-11 17:37:00,47.1,21.6,28.29,SSW,199,3.6,3.6,36,0.00,,,0.00,VWS V14.01,2013-01-11 23:37:00,
2013-01-11 17:42:00,47.1,21.6,28.29,SSW,197,5.8,5.8,36,0.00,,,0.00,VWS V14.01,2013-01-11 23:42:00,
2013-01-11 17:47:00,47.1,21.6,28.29,SSW,198,5.8,5.8,36,0.00,,,0.00,VWS V14.01,2013-01-11 23:47:00,
2013-01-11 17:52:00,46.8,21.9,28.29,SSW,198,4.9,4.9,37,0.00,,,0.00,VWS V14.01,2013-01-11 23:52:00,
2013-01-11 17:57:00,46.8,21.9,28.29,SSW,202,4.9,4.9,37,0.00,,,0.00,VWS V14.01,2013-01-11 23:57:00,
2013-01-11 18:02:00,46.8,21.9,28.29,SSW,196,4.9,4.9,37,0.00,,,0.00,VWS V14.01,2013-01-12 00:02:00,
2013-01-11 18:07:00,46.8,21.9,28.29,SSW,207,4.9,4.9,37,0.00,,,0.00,VWS V14.01,2013-01-12 00:07:00,
2013-01-11 18:12:00,46.8,21.9,28.29,SW,217,4.0,4.0,37,0.00,,,0.00,VWS V14.01,2013-01-12 00:12:00,
2013-01-11 18:17:00,46.8,21.9,28.29,SW,214,3.1,3.1,37,0.00,,,0.00,VWS V14.01,2013-01-12 00:17:00,
2013-01-11 18:22:00,46.6,21.7,28.29,SSW,205,5.4,5.4,37,0.00,,,0.00,VWS V14.01,2013-01-12 00:22:00,
2013-01-11 18:27:00,46.4,21.6,28.29,SSW,207,2.7,2.7,37,0.00,,,0.00,VWS V14.01,2013-01-12 00:27:00,
2013-01-11 18:32:00,46.4,21.6,28.29,SW,219,4.0,4.0,37,0.00,,,0.00,VWS V14.01,2013-01-12 00:32:00,
2013-01-11 18:37:00,46.8,21.9,28.29,SW,219,5.4,5.4,37,0.00,,,0.00,VWS V14.01,2013-01-12 00:37:00,
2013-01-11 18:42:00,46.8,21.9,28.29,SW,220,3.6,4.0,37,0.00,,,0.00,VWS V14.01,2013-01-12 00:42:00,
2013-01-11 18:47:00,46.8,21.2,28.29,SW,220,2.7,2.7,36,0.00,,,0.00,VWS V14.01,2013-01-12 00:47:00,
2013-01-11 18:52:00,46.8,21.2,28.32,SW,220,2.7,2.7,36,0.00,,,0.00,VWS V14.01,2013-01-12 00:52:00,
2013-01-11 18:57:00,45.7,20.9,28.32,SW,220,0.0,0.0,37,0.00,,,0.00,VWS V14.01,2013-01-12 00:57:00,
2013-01-11 19:02:00,45.7,20.9,28.32,SW,221,0.0,0.0,37,0.00,,,0.00,VWS V14.01,2013-01-12 01:02:00,
2013-01-11 19:07:00,44.8,20.1,28.32,SW,221,0.0,0.0,37,0.00,,,0.00,VWS V14.01,2013-01-12 01:07:00,
2013-01-11 19:12:00,43.7,19.8,28.32,SW,220,0.0,0.0,38,0.00,,,0.00,VWS V14.01,2013-01-12 01:12:00,
2013-01-11 19:17:00,43.5,19.6,28.32,SW,220,0.0,0.0,38,0.00,,,0.00,VWS V14.01,2013-01-12 01:17:00,
2013-01-11 19:22:00,42.8,19.0,28.32,SW,220,0.0,0.0,38,0.00,,,0.00,VWS V14.01,2013-01-12 01:22:00,
2013-01-11 19:27:00,42.8,19.0,28.32,SW,221,4.0,4.0,38,0.00,,,0.00,VWS V14.01,2013-01-12 01:27:00,
2013-01-11 19:32:00,42.8,19.0,28.32,SW,221,3.6,3.6,38,0.00,,,0.00,VWS V14.01,2013-01-12 01:32:00,
2013-01-11 19:37:00,42.6,20.6,28.32,West,266,6.7,6.7,41,0.00,,,0.00,VWS V14.01,2013-01-12 01:37:00,
2013-01-11 19:42:00,43.0,22.6,28.32,NW,304,8.3,8.3,44,0.00,,,0.00,VWS V14.01,2013-01-12 01:42:00,
2013-01-11 19:47:00,42.6,22.8,28.32,NW,324,5.8,7.2,45,0.00,,,0.00,VWS V14.01,2013-01-12 01:47:00,
2013-01-11 19:52:00,42.4,22.6,28.32,WNW,298,7.6,8.3,45,0.00,,,0.00,VWS V14.01,2013-01-12 01:52:00,
2013-01-11 19:57:00,42.4,22.6,28.32,NW,309,7.6,7.6,45,0.00,,,0.00,VWS V14.01,2013-01-12 01:57:00,
2013-01-11 20:02:00,41.7,23.0,28.32,WNW,297,8.1,8.7,47,0.00,,,0.00,VWS V14.01,2013-01-12 02:02:00,
2013-01-11 20:07:00,41.4,22.7,28.32,WNW,298,6.3,6.3,47,0.00,,,0.00,VWS V14.01,2013-01-12 02:07:00,
2013-01-11 20:12:00,41.2,23.0,28.35,WNW,300,8.1,10.1,48,0.00,,,0.00,VWS V14.01,2013-01-12 02:12:00,
2013-01-11 20:17:00,41.2,23.0,28.35,NNW,333,10.5,10.5,48,0.00,,,0.00,VWS V14.01,2013-01-12 02:17:00,
2013-01-11 20:22:00,40.8,21.7,28.35,NW,307,8.7,8.7,46,0.00,,,0.00,VWS V14.01,2013-01-12 02:22:00,
2013-01-11 20:27:00,40.6,21.5,28.35,NW,315,17.4,17.4,46,0.00,,,0.00,VWS V14.01,2013-01-12 02:27:00,
2013-01-11 20:32:00,40.1,21.0,28.35,WNW,301,16.3,16.3,46,0.00,,,0.00,VWS V14.01,2013-01-12 02:32:00,
2013-01-11 20:37:00,38.8,21.3,28.35,WNW,295,13.2,13.2,49,0.00,,,0.00,VWS V14.01,2013-01-12 02:37:00,
2013-01-11 20:42:00,38.1,21.6,28.38,WNW,299,13.2,13.2,51,0.00,,,0.00,VWS V14.01,2013-01-12 02:42:00,
2013-01-11 20:47:00,38.1,21.6,28.38,WNW,300,8.3,15.4,51,0.00,,,0.00,VWS V14.01,2013-01-12 02:47:00,
2013-01-11 20:52:00,36.9,19.0,28.38,WNW,303,10.5,10.5,48,0.00,,,0.00,VWS V14.01,2013-01-12 02:52:00,
2013-01-11 20:57:00,36.3,17.5,28.38,NW,310,8.1,8.1,46,0.00,,,0.00,VWS V14.01,2013-01-12 02:57:00,
2013-01-11 21:02:00,36.0,17.2,28.38,NW,304,12.3,12.3,46,0.00,,,0.00,VWS V14.01,2013-01-12 03:02:00,
2013-01-11 21:07:00,35.8,17.0,28.38,NW,322,9.6,19.2,46,0.00,,,0.00,VWS V14.01,2013-01-12 03:07:00,
2013-01-11 21:12:00,35.8,17.0,28.38,NW,307,15.0,15.0,46,0.00,,,0.00,VWS V14.01,2013-01-12 03:12:00,
2013-01-11 21:17:00,34.9,15.2,28.38,WNW,288,13.2,13.2,44,0.00,,,0.00,VWS V14.01,2013-01-12 03:17:00,
2013-01-11 21:22:00,34.7,14.0,28.38,WNW,289,11.0,12.3,42,0.00,,,0.00,VWS V14.01,2013-01-12 03:22:00,
2013-01-11 21:27:00,34.7,14.0,28.38,WNW,286,13.6,13.6,42,0.00,,,0.00,VWS V14.01,2013-01-12 03:27:00,
2013-01-11 21:32:00,34.5,13.8,28.44,WNW,294,12.8,12.8,42,0.00,,,0.00,VWS V14.01,2013-01-12 03:32:00,
2013-01-11 21:37:00,34.5,13.8,28.44,WNW,301,15.0,15.0,42,0.00,,,0.00,VWS V14.01,2013-01-12 03:37:00,
2013-01-11 21:42:00,34.5,13.3,28.47,WNW,298,18.3,18.3,41,0.00,,,0.00,VWS V14.01,2013-01-12 03:42:00,
2013-01-11 21:47:00,34.3,12.5,28.47,WNW,295,17.4,19.7,40,0.00,,,0.00,VWS V14.01,2013-01-12 03:47:00,
2013-01-11 21:52:00,34.3,12.5,28.47,WNW,300,13.2,19.7,40,0.00,,,0.00,VWS V14.01,2013-01-12 03:52:00,
2013-01-11 21:57:00,34.2,12.9,28.47,WNW,300,15.4,15.4,41,0.00,,,0.00,VWS V14.01,2013-01-12 03:57:00,
2013-01-11 22:02:00,34.2,12.9,28.47,WNW,292,14.1,17.4,41,0.00,,,0.00,VWS V14.01,2013-01-12 04:02:00,
2013-01-11 22:07:00,33.6,12.4,28.50,NW,305,10.5,10.5,41,0.00,,,0.00,VWS V14.01,2013-01-12 04:07:00,
2013-01-11 22:12:00,33.3,12.1,28.50,WNW,284,23.3,23.3,41,0.00,,,0.00,VWS V14.01,2013-01-12 04:12:00,
2013-01-11 22:17:00,32.9,11.8,28.50,West,267,17.4,17.4,41,0.00,,,0.00,VWS V14.01,2013-01-12 04:17:00,
2013-01-11 22:22:00,32.7,11.6,28.50,West,279,15.0,15.0,41,0.00,,,0.00,VWS V14.01,2013-01-12 04:22:00,
2013-01-11 22:27:00,32.7,11.6,28.53,NW,307,18.3,18.3,41,0.00,,,0.00,VWS V14.01,2013-01-12 04:27:00,
2013-01-11 22:32:00,32.4,11.3,28.53,West,259,17.4,17.4,41,0.00,,,0.00,VWS V14.01,2013-01-12 04:32:00,
2013-01-11 22:37:00,32.4,11.3,28.53,West,274,6.3,10.1,41,0.00,,,0.00,VWS V14.01,2013-01-12 04:37:00,
2013-01-11 22:42:00,31.5,10.5,28.53,WNW,299,17.9,17.9,41,0.00,,,0.00,VWS V14.01,2013-01-12 04:42:00,
2013-01-11 22:47:00,30.9,9.4,28.53,West,276,15.4,15.4,40,0.00,,,0.00,VWS V14.01,2013-01-12 04:47:00,
2013-01-11 22:52:00,30.7,9.3,28.53,WNW,294,8.3,8.3,40,0.00,,,0.00,VWS V14.01,2013-01-12 04:52:00,
2013-01-11 22:57:00,30.4,7.8,28.53,WNW,302,15.0,15.0,38,0.00,,,0.00,VWS V14.01,2013-01-12 04:57:00,
2013-01-11 23:00:00,30.4,7.8,28.56,West,263,8.7,12.8,38,0.00,,,0.00,VWS V14.01,2013-01-12 05:00:00,
2013-01-11 23:01:00,30.4,7.8,28.56,West,263,8.7,8.7,38,0.00,,,0.00,VWS V14.01,2013-01-12 05:01:00,
2013-01-11 23:03:00,30.0,8.1,28.56,WNW,288,18.3,18.3,39,0.00,,,0.00,VWS V14.01,2013-01-12 05:03:00,
2013-01-11 23:08:00,29.8,7.9,28.56,WNW,299,10.5,10.5,39,0.00,,,0.00,VWS V14.01,2013-01-12 05:08:00,
2013-01-11 23:13:00,29.5,5.2,28.56,West,267,7.2,7.2,35,0.00,,,0.00,VWS V14.01,2013-01-12 05:13:00,
2013-01-11 23:18:00,29.1,4.9,28.56,NW,313,19.7,19.7,35,0.00,,,0.00,VWS V14.01,2013-01-12 05:18:00,
2013-01-11 23:23:00,29.1,4.3,28.56,WNW,290,12.8,12.8,34,0.00,,,0.00,VWS V14.01,2013-01-12 05:23:00,
2013-01-11 23:28:00,29.1,4.3,28.59,WNW,296,17.9,17.9,34,0.00,,,0.00,VWS V14.01,2013-01-12 05:28:00,
2013-01-11 23:33:00,28.6,2.5,28.59,WNW,289,8.7,14.1,32,0.00,,,0.00,VWS V14.01,2013-01-12 05:33:00,
2013-01-11 23:38:00,28.0,2.0,28.59,WNW,284,16.3,16.3,32,0.00,,,0.00,VWS V14.01,2013-01-12 05:38:00,
2013-01-11 23:43:00,27.5,0.8,28.59,NW,312,22.8,22.8,31,0.00,,,0.00,VWS V14.01,2013-01-12 05:43:00,
2013-01-11 23:48:00,27.5,0.8,28.59,WNW,294,12.8,21.0,31,0.00,,,0.00,VWS V14.01,2013-01-12 05:48:00,
2013-01-11 23:53:00,27.5,0.8,28.59,WNW,282,12.8,12.8,31,0.00,,,0.00,VWS V14.01,2013-01-12 05:53:00,
2013-01-11 23:58:00,26.6,0.1,28.61,WNW,301,13.2,13.2,31,0.00,,,0.00,VWS V14.01,2013-01-12 05:58:00,